Location: Willingham
(52.3167°N, 0.0667°E)
Time: 01:19:12
(UTC+00:00)

NOSS 3-1 (C) - Pass Details

Date: 19 May 2025
Orbit: 632 x 1571 km, 63.4° (Epoch: 17 June)

Event Time Altitude Azimuth Distance (km) Brightness Sun altitude
Rises 22:06:37 0° 227° (SW) 3,020 5.9 -13.9°
Reaches altitude 10° 22:08:45 10° 228° (SW) 2,173 5.2 -14.0°
Maximum altitude 22:13:40 84° 317° (NW) 810 3.1 -14.3°
Drops below altitude 10° 22:19:46 10° 46° (NE) 2,681 6.1 -14.7°
Sets 22:22:39 0° 47° (NE) 3,784 6.9 -14.9°
